Hourly Data Report for September 18, 2017

All times are specified in Local Standard Time (LST). Add 1 hour to adjust for Daylight Saving Time where and when it is observed.

CORAL HARBOUR A
NUNAVUT

64°11'36.000" N
83°21'34.000" W
62.20 m
2301002
71915
YZS

Download Data

Hourly Data (September 2017)
Hourly Data Report for September 18, 2017
Temp Definition
°C
Dew Point Temp Definition
°C
Rel Hum Definition
%
Wind Dir Definition
10's deg

Wind Spd Definition
km/h
Visibility Definition
km
Stn Press Definition
kPa
Hmdx Definition


Wind Chill Definition


Weather Definition


TIME
00:00 Legend Double Dagger 1.8 1.6 99 30 6 0.2 101.36     Fog
01:00 Legend Double Dagger 0.7 0.6 99 17 14 1.2 101.35     Fog
02:00 Legend Double Dagger 0.7 0.6 99 27 4 0.4 101.34     Fog
03:00 Legend Double Dagger 0.0 -0.2 99 8 12 0.4 101.31   -4 Fog
04:00 Legend Double Dagger 0.0 -0.2 99 17 12 0.4 101.31   -4 Fog
05:00 Legend Double Dagger -0.3 -0.5 99 16 11 0.4 101.28   -4 Freezing Fog
06:00 Legend Double Dagger -0.7 -0.9 99 9 13 0.4 101.25   -5 Freezing Fog
07:00 Legend Double Dagger -0.8 -1.0 99 8 12 0.8 101.22   -5 Freezing Fog
08:00 Legend Double Dagger -0.8 -1.0 98 8 12 1.6 101.19   -5 Fog
09:00 Legend Double Dagger -0.2 -0.4 98 9 12 1.2 101.16   -4 Fog
10:00 Legend Double Dagger 0.6 0.0 95 16 17 1.6 101.12     Fog
11:00 Legend Double Dagger 0.9 0.5 97 10 7 1.6 101.06     Fog
12:00 Legend Double Dagger 2.8 1.5 91 10 8 19.3 101.00     LegendNANA
13:00 Legend Double Dagger 4.5 2.1 84 11 8 24.1 100.96     Mostly Cloudy
14:00 Legend Double Dagger 5.2 2.1 80 15 17 24.1 100.95     LegendNANA
15:00 Legend Double Dagger 4.7 1.6 80 15 11 24.1 100.88     LegendNANA
16:00 Legend Double Dagger 5.3 1.4 75 14 9 24.1 100.85     Mostly Cloudy
17:00 Legend Double Dagger 5.5 0.3 69 9 13 24.1 100.80     LegendNANA
18:00 Legend Double Dagger 5.2 0.5 71 9 19 24.1 100.76     LegendNANA
19:00 Legend Double Dagger 3.4 0.7 83 8 12 24.1 100.71     Mostly Cloudy
20:00 Legend Double Dagger 2.1 -0.2 85 7 12 24.1 100.67     LegendNANA
21:00 Legend Double Dagger 1.7 -0.8 83 6 11 24.1 100.62     LegendNANA
22:00 Legend Double Dagger 1.0 -1.0 86 5 10 24.1 100.58     Mainly Clear
23:00 Legend Double Dagger 0.9 -0.3 92 6 26 24.1 100.57     LegendNANA

Notes on Data Quality.

Legend

  • E = Estimated
  • M = Missing
  • NA = Not Available
  • ‡ = Partner data that is not subject to review by the National Climate Archives
Date modified: